www.pogodaiklimat.ru

Погода и климат >> Архив погоды >> Индия >> Jhansi


ПОГОДА в Jhansi

  • Прогноз погоды в Jhansi
  • Монитор погоды в Jhansi
  • Климат города

АРХИВ ПОГОДЫ в Jhansi

Время (UTC), дата Ветер
(напр.,м/с)
 
Видим.   Явления Облачность Т
(С)
Тd
(С)
f
(%)
Тe
(С)
Тes
(С)
Комфортность P
(гПа)
Po
(гПа)
Тmin
(С)
Tmax
(С)
R
(мм)
R24
(мм)
S
(см)
03 14.10 штиль 0 4000 м ясно +27.6 +19.3 61 +33 +38 очень
душно
1009.3 1009.0 +22.1 +37.0
06 14.10 З 1 4000 м ясно +35.0 +19.7 41 +41 +57 опасность
перегрева
1008.5 1009.0
09 14.10 З 2 4000 м ясно +38.6 +12.3 21 +38 +49 очень
жарко
1005.0 1005.0
12 14.10 СЗ 1 4000 м ясно +35.2 +15.1 30 +37 +37 очень
душно
1003.7 1004.0 +39.0
03 15.10 СЗ 1 4000 м ясно +26.6 +12.1 41 +28 +32 жарко 1009.2 1009.0 +21.1 +39.0
06 15.10 СЗ 1 4000 м ясно +35.0 +14.3 29 +36 +52 опасность
солнечного
удара
1008.9 1009.0
09 15.10 СЗ 1 4000 м ясно +38.4 +13.0 22 +38 +50 очень
жарко
1006.5 1007.0
12 15.10 З 1 4000 м ясно +34.8 +14.9 30 +36 +36 душно 1004.9 1005.0 +39.0
03 16.10 штиль 0 4000 м ясно +25.0 +14.6 52 +28 +33 жарко 1009.8 1010.0 +19.9 +39.0
06 16.10 З 1 4000 м ясно +35.4 +12.5 25 +35 +51 опасность
солнечного
удара
1009.0 1009.0
12 16.10 СЗ 1 4000 м ясно +33.6 +13.6 30 +35 +35 душно 1005.8 1006.0 +38.8
03 17.10 СВ 1 4000 м ясно +25.0 +11.2 42 +26 +31 жарко 1011.3 1011.0 +19.1 +38.8
06 17.10 СЗ 1 4000 м ясно +33.2 +12.0 28 +33 +49 жарко 1009.6 1010.0
09 17.10 СЗ 2 4000 м ясно +36.8 +7.2 16 +34 +45 очень
жарко
1007.5 1008.0
12 17.10 СЗ 2 4000 м ясно +33.4 +9.1 22 +32 +32 жарко 1006.9 1007.0 +37.2
03 18.10 СЗ 1 4000 м ясно +24.6 +13.3 49 +27 +31 жарко 1011.8 1012.0 +19.6 +37.2
06 18.10 СЗ 3 4000 м ясно +33.4 +14.2 31 +35 +47 душно 1010.1 1010.0
09 18.10 СЗ 3 4000 м ясно +35.0 +9.2 21 +34 +42 очень
жарко
1007.5 1008.0
12 18.10 СЗ 3 4000 м ясно +32.2 +10.3 26 +32 +32 жарко 1006.2 1006.0 +35.3
03 19.10 СЗ 1 4000 м ясно +25.0 +15.8 57 +28 +32 жарко 1011.8 1012.0 +21.5 +35.3
06 19.10 СЗ 3 4000 м 4/0
[Ac trans Ci fib]
+32.4 +19.3 46 +38 +47 очень
душно
1009.8 1010.0
09 19.10 ЮВ 3 4000 м 5/0
[Ac trans Ci fib]
+34.2 +14.9 31 +36 +42 душно 1007.1 1007.0
12 19.10 ЮВ 3 4000 м 5/0
[Ac trans Ci fib]
+31.2 +15.8 39 +34 +34 душно 1005.8 1006.0 +34.7
03 20.10 СВ 1 4000 м ясно +28.0 +22.4 72 +37 +41 очень
душно
1010.4 1010.0 +24.1 +34.7
06 20.10 ЮВ 3 4000 м 5/0
[Ac trans Ci fib]
+34.0 +21.7 49 +42 +51 опасность
перегрева
1008.0 1008.0
09 20.10 СВ 3 4000 м мгла 9/5 750 м
[Cu Sc Ac trans]
+31.0 +20.8 55 +38 +41 очень
душно
1008.0 1008.0 0.0
12 20.10 СЗ 3 4000 м мгла 9/5 750 м
[Cb calv Ac trans]
+30.0 +23.0 66 +40 +40 очень
душно
1007.5 1008.0 +35.4 0.0

 

Местоположение метеостанции Jhansi (Uttar Pradesh, Индия): широта 25.45 долгота 78.62 высота над уровнем моря 258 м.

В архиве по умолчанию представлена погода в Jhansi за последнюю неделю. Архивные данные за месяц целиком и за предыдущие месяцы, начиная с января 2011 года, Вы можете получить, выбрав интересующий диапазон дат из раскрывающегося списка и нажав кнопку "Ввод!".

Внимание! Время в таблицах - всемирное. Для получения местного времени необходимо прибавить поправку, которая в Jhansi равна 5.5 ч.

Смотрите также архив погоды в соседних городах и на ближайших метеорологических станциях:

Погода в Tikamgarh (Madhya Pradesh, Индия) (79 км)
Погода в Nowgong (Madhya Pradesh, Индия) (94 км)
Погода в Gwalior (Madhya Pradesh, Индия) (94 км)
Погода в Shivpuri (Madhya Pradesh, Индия) (98 км)
Погода в Khajuraho (Madhya Pradesh, Индия) (141 км)
Погода в Guna (Madhya Pradesh, Индия) (158 км)
Погода в Hamirpur (Uttar Pradesh, Индия) (163 км)
Погода в Banda (Uttar Pradesh, Индия) (176 км)
Погода в Sagar (Madhya Pradesh, Индия) (178 км)
Погода в Sheopur (Madhya Pradesh, Индия) (196 км)

Пояснения к столбцам:

Ветер - указаны скорость ветра в м/с - средняя за 10 мин, порывы в срок и между сроками (в фигурных скобках) и направление, откуда дует ветер: С - северный, СВ - северо-восточный, В - восточный, ЮВ - юго-восточный, Ю - южный, ЮЗ - юго-западный, З - западный, СЗ - северо-западный.
Видимость - горизонтальная дальность видимости в метрах или километрах. При видимости от 1 до 10 км при отсутствии осадков обычно наблюдается дымка, при ухудшении видимости до 1 км и менее - туман. В сухую погоду видимость может ухудшаться дымом, пылью или мглою.
Явления - указаны атмосферные явления, наблюдавшиеся в срок или в последний час перед сроком; фигурными скобками обозначены явления, наблюдавшиеся между сроками (за 1-3 часа до срока); квадратными скобками обозначены град или гололедные отложения с указанием их диаметра в мм.
Облачность - указаны через наклонную черту общая и нижняя облачность в баллах и высота нижней границы облаков в метрах; квадратными скобками обозначены формы облаков: Ci - перистые, Cs - перисто-слоистые, Cc - перисто-кучевые, Ac - высококучевые, As - высокослоистые, Sc - слоисто-кучевые, Ns - слоисто-дождевые, Cu - кучевые, Cb - кучево-дождевые. Подробнее классификацию облаков см. в Атласе облаков (PDF).
T - Температура воздуха - температура, измеренная на высоте 2 м над землей.
Td - Температура точки росы - температура, при понижении до которой содержащийся в воздухе водяной пар достигнет насыщения.
f - Относительная влажность воздуха - влажноcть воздуха, измеренная на высоте 2 м над землей.
Te - Эффективная температура - температура, которую ощущает одетый по сезону человек в тени. Характеристика душности погоды. При расчете учитывается влияние влажности воздуха и скорости ветра на теплоощущения человека.
Tes - Эффективная температура на солнце - температура, которую ощущает человек, с поправкой на солнечный нагрев. Характеристика знойности погоды. Зависит от высоты солнца над горизонтом, облачности и скорости ветра. Ночью, в пасмурную погоду, а также при ветре 12 м/с и более поправка равна нулю.
P - Атмосферное давление - приведенное к уровню моря атмосферное давление.
Po - Атмосферное давление - измеренное на уровне метеостанции атмосферное давление.
Tmin - Минимальная температура - минимум температуры воздуха на высоте 2 м над землей.
Tmax - Максимальная температура - максимум температуры воздуха на высоте 2 м над землей.
R - Количество осадков - Количество выпавших осадков за период времени, мм. При наведении курсора мыши на число - период времени, за который выпало указанное количество осадков.
R24 - Количество осадков - Количество выпавших осадков за 24 часа, мм.
S - Снежный покров - Высота снежного покрова, см. При наведении курсора мыши на число - состояние снежного покрова и степень покрытия местности в баллах.